OE2WAO-20 Weather Reports


Display with metric or nautical units.
time (UTC)temp
F
wind
direction
speed
MPH
gust
MPH
rain 1hr
in
rain 24hr
in
rain mn
in
humidity
%
barometer
mb
20260903064047 66 0.0 0.0 0.00 0.00 0.00 73 1025.1
20260903063047 65 0.0 0.0 0.00 0.00 0.00 75 1025.1
20260903062047 65 0.0 0.0 0.00 0.00 0.00 75 1025.1
20260903061047 64 0.0 0.0 0.00 0.00 0.00 77 1025.1
20260903060047 64 0.0 0.0 0.00 0.00 0.00 77 1024.8
20260903055047 63 0.0 0.0 0.00 0.00 0.00 78 1024.8
20260903054047 63 0.0 0.0 0.00 0.00 0.00 78 1024.8
20260903053047 61 0.0 0.0 0.00 0.00 0.00 81 1024.8
20260903052047 61 0.0 0.0 0.00 0.00 0.00 81 1024.5
20260903051047 61 0.0 0.0 0.00 0.00 0.00 81 1024.5
20260903050047 61 0.0 0.0 0.00 0.00 0.00 80 1024.6
20260903045047 61 0.0 0.0 0.00 0.00 0.00 80 1024.6
20260903044047 61 0.0 0.0 0.00 0.00 0.00 79 1024.6
20260903043047 63 0.0 0.0 0.00 0.00 0.00 76 1024.6
20260903042047 63 0.0 0.0 0.00 0.00 0.00 76 1024.5
20260903041047 63 0.0 0.0 0.00 0.00 0.00 76 1024.3
20260903040047 63 0.0 0.0 0.00 0.00 0.00 76 1024.3
20260903035047 63 0.0 0.0 0.00 0.00 0.00 77 1024.3
20260903034047 64 0.0 0.0 0.00 0.00 0.00 75 1024.3
20260903033047 64 0.0 0.0 0.00 0.00 0.00 75 1024.3
20260903032047 64 0.0 0.0 0.00 0.00 0.00 75 1024.3
20260903031047 65 0.0 0.0 0.00 0.00 0.00 73 1024.3
20260903030047 65 0.0 0.0 0.00 0.00 0.00 73 1024.3
20260903025047 65 0.0 0.0 0.00 0.00 0.00 73 1024.3
20260903024047 65 0.0 0.0 0.00 0.00 0.00 73 1024.1
20260903023047 64 0.0 0.0 0.00 0.00 0.00 72 1024.1
20260903022047 64 0.0 0.0 0.00 0.00 0.00 72 1024.1
20260903021047 65 0.0 0.0 0.00 0.00 0.00 71 1024.1
20260903020047 66 0.0 0.0 0.00 0.00 0.00 68 1024.1
20260903015047 66 0.0 0.0 0.00 0.00 0.00 68 1024.1
20260903014047 66 0.0 0.0 0.00 0.00 0.00 68 1024.1
20260903013047 66 0.0 0.0 0.00 0.00 0.00 68 1024.1
20260903012047 66 0.0 0.0 0.00 0.00 0.00 68 1023.9
20260903011047 66 0.0 0.0 0.00 0.00 0.00 68 1023.9
20260903010047 66 0.0 0.0 0.00 0.00 0.00 69 1023.9
20260903005047 65 0.0 0.0 0.00 0.00 0.00 71 1023.9
20260903004047 64 0.0 0.0 0.00 0.00 0.00 73 1023.9
20260903003047 65 0.0 0.0 0.00 0.00 0.00 75 1023.7
20260903002047 65 0.0 0.0 0.00 0.00 0.00 75 1023.7
20260903001047 64 0.0 0.0 0.00 0.00 0.00 77 1023.7
20260903000047 64 0.0 0.0 0.00 0.00 0.00 77 1023.7
20260902235047 64 0.0 0.0 0.00 0.00 0.00 77 1023.7
20260902234047 64 0.0 0.0 0.00 0.00 0.00 77 1023.7
20260902233047 64 0.0 0.0 0.00 0.00 0.00 79 1023.9
20260902232047 64 0.0 0.0 0.00 0.00 0.00 79 1023.9
20260902231047 64 0.0 0.0 0.00 0.00 0.00 79 1023.9
20260902230047 64 0.0 0.0 0.00 0.00 0.00 79 1023.9
20260902225047 64 0.0 0.0 0.00 0.00 0.00 79 1023.9
20260902224047 64 0.0 0.0 0.00 0.00 0.00 79 1023.8
20260902223047 64 0.0 0.0 0.00 0.00 0.00 79 1023.8
20260902222047 64 0.0 0.0 0.00 0.00 0.00 79 1023.8
20260902221047 64 0.0 0.0 0.00 0.00 0.00 79 1023.8
20260902220047 64 0.0 0.0 0.00 0.00 0.00 79 1023.7
20260902215047 65 0.0 0.0 0.00 0.00 0.00 79 1023.7
20260902214047 65 0.0 0.0 0.00 0.00 0.00 79 1023.5
20260902213047 65 0.0 0.0 0.00 0.00 0.00 79 1023.5
20260902212047 65 0.0 0.0 0.00 0.00 0.00 79 1023.5
20260902211047 66 0.0 0.0 0.00 0.00 0.00 76 1023.5
20260902210047 66 0.0 0.0 0.00 0.00 0.00 76 1023.5
20260902205047 66 0.0 0.0 0.00 0.00 0.00 76 1023.6
20260902204047 66 0.0 0.0 0.00 0.00 0.00 76 1023.6
20260902203047 66 0.0 0.0 0.00 0.00 0.00 76 1023.6
20260902202047 66 0.0 0.0 0.00 0.00 0.00 76 1023.6
20260902201047 66 0.0 0.0 0.00 0.00 0.00 76 1023.6
20260902200047 66 0.0 0.0 0.00 0.00 0.00 77 1023.5
20260902195047 67 0.0 0.0 0.00 0.00 0.00 75 1023.5
20260902194047 67 0.0 0.0 0.00 0.00 0.00 75 1023.3
20260902193047 67 0.0 0.0 0.00 0.00 0.00 75 1023.3
20260902192047 67 0.0 0.0 0.00 0.00 0.00 75 1023.6
20260902191047 68 0.0 0.0 0.00 0.00 0.00 72 1023.6
20260902190047 68 0.0 0.0 0.00 0.00 0.00 72 1023.3
20260902185047 68 0.0 0.0 0.00 0.00 0.00 73 1023.3
20260902184047 69 0.0 0.0 0.00 0.00 0.00 71 1023.0
20260902183047 70 0.0 0.0 0.00 0.00 0.00 69 1023.0
20260902182047 70 0.0 0.0 0.00 0.00 0.00 69 1023.0
20260902181047 70 0.0 0.0 0.00 0.00 0.00 67 1022.8
20260902180047 71 0.0 0.0 0.00 0.00 0.00 66 1022.8
20260902175047 71 0.0 0.0 0.00 0.00 0.00 66 1022.8
20260902174047 72 0.0 0.0 0.00 0.00 0.00 65 1022.7
20260902173047 72 0.0 0.0 0.00 0.00 0.00 65 1022.7
20260902172047 73 0.0 0.0 0.00 0.00 0.00 62 1022.6
20260902171047 73 0.0 0.0 0.00 0.00 0.00 63 1022.6
20260902170047 74 0.0 0.0 0.00 0.00 0.00 61 1022.6
20260902165047 74 0.0 0.0 0.00 0.00 0.00 63 1022.6
20260902164047 75 0.0 0.0 0.00 0.00 0.00 61 1022.6
20260902163047 75 0.0 0.0 0.00 0.00 0.00 59 1022.6
20260902162047 76 0.0 0.0 0.00 0.00 0.00 59 1022.6
20260902161047 77 0.0 0.0 0.00 0.00 0.00 58 1022.6
20260902160047 77 0.0 0.0 0.00 0.00 0.00 57 1022.6
20260902155047 78 0.0 0.0 0.00 0.00 0.00 55 1022.6
20260902154047 78 0.0 0.0 0.00 0.00 0.00 55 1022.6
20260902153047 78 0.0 0.0 0.00 0.00 0.00 53 1022.5
20260902152047 78 0.0 0.0 0.00 0.00 0.00 53 1022.5
20260902151047 78 0.0 0.0 0.00 0.00 0.00 53 1022.5
20260902150047 78 0.0 0.0 0.00 0.00 0.00 53 1022.5
20260902145047 79 0.0 0.0 0.00 0.00 0.00 51 1022.8
20260902144047 79 0.0 0.0 0.00 0.00 0.00 53 1022.8
20260902143047 79 0.0 0.0 0.00 0.00 0.00 51 1022.8
20260902142047 79 0.0 0.0 0.00 0.00 0.00 53 1022.8
20260902141047 79 0.0 0.0 0.00 0.00 0.00 53 1022.8
20260902140047 79 0.0 0.0 0.00 0.00 0.00 53 1022.8
20260902135047 79 0.0 0.0 0.00 0.00 0.00 53 1023.1
20260902134047 79 0.0 0.0 0.00 0.00 0.00 51 1023.1
20260902133047 79 0.0 0.0 0.00 0.00 0.00 55 1023.1
20260902132047 77 0.0 0.0 0.00 0.00 0.00 52 1023.1
20260902131047 76 0.0 0.0 0.00 0.00 0.00 54 1023.3
20260902130047 77 0.0 0.0 0.00 0.00 0.00 57 1023.3
20260902125047 77 0.0 0.0 0.00 0.00 0.00 57 1023.4
20260902124047 76 0.0 0.0 0.00 0.00 0.00 59 1023.4
20260902123047 76 0.0 0.0 0.00 0.00 0.00 59 1023.4
20260902122047 74 0.0 0.0 0.00 0.00 0.00 61 1023.4
20260902121047 74 0.0 0.0 0.00 0.00 0.00 61 1023.4
20260902120047 74 0.0 0.0 0.00 0.00 0.00 61 1023.3
20260902115047 74 0.0 0.0 0.00 0.00 0.00 61 1023.7
20260902114047 74 0.0 0.0 0.00 0.00 0.00 61 1023.7
20260902113047 75 0.0 0.0 0.00 0.00 0.00 59 1023.7
20260902112047 75 0.0 0.0 0.00 0.00 0.00 59 1023.7
20260902111047 75 0.0 0.0 0.00 0.00 0.00 59 1023.7
20260902110047 76 0.0 0.0 0.00 0.00 0.00 57 1023.6
20260902105047 76 0.0 0.0 0.00 0.00 0.00 57 1023.9
20260902104047 75 0.0 0.0 0.00 0.00 0.00 61 1023.9
20260902103047 75 0.0 0.0 0.00 0.00 0.00 59 1023.9
20260902102047 75 0.0 0.0 0.00 0.00 0.00 59 1024.1
20260902101047 75 0.0 0.0 0.00 0.00 0.00 59 1024.1
20260902100047 74 0.0 0.0 0.00 0.00 0.00 61 1024.1
20260902095047 73 0.0 0.0 0.00 0.00 0.00 63 1024.1
20260902094047 73 0.0 0.0 0.00 0.00 0.00 63 1024.1
20260902093047 73 0.0 0.0 0.00 0.00 0.00 63 1024.1
20260902092047 71 0.0 0.0 0.00 0.00 0.00 63 1024.1
20260902091047 71 0.0 0.0 0.00 0.00 0.00 63 1024.4
20260902090047 71 0.0 0.0 0.00 0.00 0.00 67 1024.4
20260902085047 69 0.0 0.0 0.00 0.00 0.00 70 1024.4
20260902084047 68 0.0 0.0 0.00 0.00 0.00 71 1024.4
20260902083047 68 0.0 0.0 0.00 0.00 0.00 71 1024.4
20260902082047 67 0.0 0.0 0.00 0.00 0.00 73 1024.4
20260902081047 66 0.0 0.0 0.00 0.00 0.00 75 1024.4
20260902080047 66 0.0 0.0 0.00 0.00 0.00 75 1024.4
20260902075047 66 0.0 0.0 0.00 0.00 0.00 75 1024.4
20260902074047 65 0.0 0.0 0.00 0.00 0.00 77 1024.3
20260902073047 64 0.0 0.0 0.00 0.00 0.00 79 1024.1
20260902072047 64 0.0 0.0 0.00 0.00 0.00 79 1024.1
20260902071047 63 0.0 0.0 0.00 0.00 0.00 81 1024.1
20260902070047 61 0.0 0.0 0.00 0.00 0.00 83 1024.1
20260902065047 61 0.0 0.0 0.00 0.00 0.00 83 1024.1